TimeEDT,TemperatureF,Dew PointF,Humidity,Sea Level PressureIn,VisibilityMPH,Wind Direction,Wind SpeedMPH,Gust SpeedMPH,PrecipitationIn,Events,Conditions,WindDirDegrees,DateUTC
12:53 AM,61.0,57.0,87,30.11,10.0,NE,10.4,-,N/A,,Overcast,40,2013-10-11 04:53:00
1:53 AM,61.0,57.9,90,30.10,10.0,NE,12.7,-,N/A,,Overcast,50,2013-10-11 05:53:00
2:53 AM,61.0,57.9,90,30.08,10.0,ENE,12.7,-,N/A,,Overcast,60,2013-10-11 06:53:00
3:53 AM,62.1,59.0,90,30.07,10.0,ENE,13.8,-,N/A,,Overcast,60,2013-10-11 07:53:00
4:53 AM,62.1,59.0,90,30.07,10.0,ENE,11.5,-,N/A,,Overcast,60,2013-10-11 08:53:00
5:53 AM,61.0,57.9,90,30.07,10.0,NE,10.4,-,N/A,,Overcast,40,2013-10-11 09:53:00
6:53 AM,61.0,57.9,90,30.07,10.0,NE,10.4,-,N/A,,Overcast,40,2013-10-11 10:53:00
7:53 AM,62.1,57.9,86,30.08,10.0,NE,10.4,-,N/A,,Overcast,40,2013-10-11 11:53:00
8:53 AM,62.1,57.9,86,30.09,10.0,NE,13.8,-,N/A,,Overcast,40,2013-10-11 12:53:00
9:44 AM,64.4,57.2,77,30.09,10.0,NE,13.8,21.9,N/A,,Overcast,40,2013-10-11 13:44:00
9:53 AM,64.0,57.9,80,30.09,10.0,NE,13.8,21.9,N/A,,Overcast,40,2013-10-11 13:53:00
10:53 AM,68.0,57.9,70,30.09,10.0,NE,12.7,21.9,N/A,,Overcast,50,2013-10-11 14:53:00
11:53 AM,68.0,57.9,70,30.09,10.0,NE,13.8,25.3,N/A,,Overcast,50,2013-10-11 15:53:00
12:53 PM,68.0,57.0,68,30.08,10.0,NNE,12.7,-,N/A,,Overcast,30,2013-10-11 16:53:00
1:53 PM,70.0,57.0,63,30.07,10.0,NE,13.8,21.9,N/A,,Overcast,40,2013-10-11 17:53:00
2:53 PM,64.9,55.9,73,30.07,10.0,NE,13.8,20.7,N/A,,Overcast,40,2013-10-11 18:53:00
3:53 PM,64.0,55.9,75,30.07,10.0,NNE,10.4,-,N/A,,Overcast,30,2013-10-11 19:53:00
4:53 PM,63.0,55.0,75,30.07,10.0,NNE,15.0,19.6,N/A,,Clear,30,2013-10-11 20:53:00
5:53 PM,62.1,54.0,75,30.08,10.0,NE,9.2,-,N/A,,Clear,40,2013-10-11 21:53:00
6:53 PM,60.1,54.0,80,30.09,10.0,NNE,10.4,-,N/A,,Scattered Clouds,30,2013-10-11 22:53:00
7:53 PM,59.0,54.0,83,30.11,10.0,NNE,10.4,-,N/A,,Clear,30,2013-10-11 23:53:00
8:53 PM,59.0,54.0,83,30.12,10.0,NNE,6.9,-,N/A,,Clear,20,2013-10-12 00:53:00
9:53 PM,59.0,53.1,81,30.12,10.0,NE,6.9,-,N/A,,Clear,50,2013-10-12 01:53:00
10:53 PM,59.0,50.0,72,30.11,10.0,NE,10.4,-,N/A,,Clear,50,2013-10-12 02:53:00
11:53 PM,57.0,51.1,81,30.11,10.0,NNE,3.5,-,N/A,,Clear,30,2013-10-12 03:53:00